Date String (YYYY-MM-DD hh:mm:ss) UTC,Instrument flags,Ambient pressure (hPa),Sample flow (lpm),Bypass flow (lpm),Sample temperature (°C),Ambient temperature (°C),ASC tube jacket temperature (°C),LED temperature (°C),Box temperature (°C),Sample RH (%),Span deviation,Mass concentration (μg/m³),Mass concentration (μg/m³),Mass concentration (μg/m³)
DateTimeUTC,F1_M11,P_M11,Q1_M11,Q2_M11,T1_M11,T2_M11,T3_M11,T4_M11,T5_M11,U1_M11,ZSPAN_M11,X0_M11,X2_M11,X1_M11
2022-12-10 16:00:00,,0827.5,5.00,0.00,22.4,21.2,00.0,31.2,24.3,09.4,0000.0,0010.99,0004.03,0003.28
2022-12-10 16:01:00,,0827.5,4.98,0.00,22.4,21.3,00.0,31.2,24.3,09.4,0000.0,0010.93,0004.06,0003.29
2022-12-10 16:02:00,,0827.5,4.99,0.00,22.5,21.3,00.0,31.2,24.3,09.3,0000.0,0010.91,0004.08,0003.31
2022-12-10 16:03:00,,0827.6,5.00,0.00,22.5,21.3,00.0,31.2,24.3,09.4,0000.0,0010.88,0004.09,0003.32
2022-12-10 16:04:00,,0827.5,5.02,0.00,22.5,21.3,00.0,31.2,24.3,09.5,0000.0,0010.61,0004.11,0003.33
2022-12-10 16:05:00,,0827.5,5.01,0.00,22.5,21.3,00.0,31.2,24.4,09.5,0000.0,0010.23,0004.06,0003.33
2022-12-10 16:06:00,,0827.5,4.99,0.00,22.5,21.4,00.0,31.2,24.4,09.4,0000.0,0010.32,0004.06,0003.35
2022-12-10 16:07:00,,0827.5,4.98,0.00,22.5,21.4,00.0,31.2,24.4,09.4,0000.0,0009.75,0004.07,0003.36
2022-12-10 16:08:00,,0827.6,5.00,0.00,22.5,21.4,00.0,31.3,24.4,09.2,0000.0,0009.64,0004.08,0003.37
2022-12-10 16:09:00,,0827.5,5.01,0.00,22.6,21.4,00.0,31.3,24.4,09.2,0000.0,0009.18,0004.06,0003.39
2022-12-10 16:10:00,,0827.5,5.01,0.00,22.6,21.4,00.0,31.3,24.4,09.3,0000.0,0008.63,0004.06,0003.40
2022-12-10 16:11:00,,0827.6,4.98,0.00,22.6,21.4,00.0,31.3,24.5,09.4,0000.0,0008.42,0004.02,0003.39
2022-12-10 16:12:00,,0827.5,4.99,0.00,22.6,21.5,00.0,31.3,24.5,09.1,0000.0,0008.38,0004.02,0003.40
2022-12-10 16:13:00,,0827.6,5.00,0.00,22.6,21.5,00.0,31.3,24.5,09.1,0000.0,0008.69,0004.02,0003.40
2022-12-10 16:14:00,,0827.5,5.02,0.00,22.6,21.5,00.0,31.3,24.5,09.3,0000.0,0009.22,0004.02,0003.41
2022-12-10 16:15:00,,0827.5,4.95,0.00,22.6,21.5,00.0,31.3,24.5,09.2,0000.0,0009.11,0004.00,0003.41
2022-12-10 16:16:00,,0827.5,4.99,0.00,22.7,21.5,00.0,31.4,24.5,09.1,0000.0,0009.15,0004.00,0003.41
2022-12-10 16:17:00,,0827.5,4.99,0.00,22.7,21.5,00.0,31.4,24.5,09.1,0000.0,0009.59,0003.99,0003.42
2022-12-10 16:18:00,,0827.5,4.99,0.00,22.7,21.5,00.0,31.4,24.6,09.1,0000.0,0009.70,0004.03,0003.43
2022-12-10 16:19:00,,0827.6,5.01,0.00,22.7,21.6,00.0,31.4,24.6,09.1,0000.0,0009.39,0004.03,0003.44
2022-12-10 16:20:00,,0827.5,5.01,0.00,22.7,21.6,00.0,31.4,24.6,09.2,0000.0,0009.78,0003.98,0003.43
2022-12-10 16:21:00,,0827.5,5.02,0.00,22.7,21.6,00.0,31.4,24.6,09.0,0000.0,0010.36,0003.99,0003.43
2022-12-10 16:22:00,,0827.5,5.00,0.00,22.7,21.6,00.0,31.4,24.6,08.9,0000.0,0010.18,0003.96,0003.42
2022-12-10 16:23:00,,0827.5,4.99,0.00,22.7,21.6,00.0,31.5,24.6,08.8,0000.0,0010.34,0004.02,0003.43
2022-12-10 16:24:00,,0827.4,4.99,0.00,22.8,21.6,00.0,31.5,24.6,08.8,0000.0,0010.48,0004.02,0003.43
2022-12-10 16:25:00,,0827.4,5.01,0.00,22.8,21.6,00.0,31.5,24.6,09.1,0000.0,0010.31,0004.02,0003.42
2022-12-10 16:26:00,,0827.4,5.02,0.00,22.8,21.6,00.0,31.5,24.6,08.7,0000.0,0009.97,0004.02,0003.41
2022-12-10 16:27:00,,0827.4,4.99,0.00,22.8,21.6,00.0,31.5,24.7,08.6,0000.0,0010.71,0004.00,0003.42
2022-12-10 16:28:00,,0827.4,4.99,0.00,22.8,21.7,00.0,31.5,24.7,08.6,0000.0,0011.04,0003.99,0003.43
2022-12-10 16:29:00,,0827.4,4.99,0.00,22.8,21.7,00.0,31.5,24.7,08.6,0000.0,0011.32,0004.03,0003.44
2022-12-10 16:30:00,,0827.4,5.02,0.00,22.8,21.7,00.0,31.5,24.8,08.5,0000.0,0011.25,0004.01,0003.43
2022-12-10 16:31:00,,0827.4,5.01,0.00,22.8,21.7,00.0,31.6,24.8,08.3,0000.0,0010.89,0004.02,0003.44
2022-12-10 16:32:00,,0827.3,4.99,0.00,22.9,21.7,00.0,31.6,24.8,08.5,0000.0,0010.15,0004.01,0003.44
2022-12-10 16:33:00,,0827.3,4.98,0.00,22.9,21.8,00.0,31.6,24.8,08.6,0000.0,0010.19,0004.02,0003.45
2022-12-10 16:34:00,,0827.2,5.00,0.00,22.9,21.8,00.0,31.6,24.8,08.5,0000.0,0010.11,0003.99,0003.45
2022-12-10 16:35:00,,0827.5,5.02,0.00,22.9,21.8,00.0,31.6,24.8,08.3,0000.0,0009.98,0004.01,0003.46
2022-12-10 16:36:00,,0827.2,4.99,0.00,22.9,21.8,00.0,31.6,24.8,08.2,0000.0,0010.65,0004.01,0003.47
2022-12-10 16:37:00,,0827.3,4.99,0.00,22.9,21.8,00.0,31.6,24.9,08.1,0000.0,0010.72,0003.99,0003.47
2022-12-10 16:38:00,,0827.3,4.98,0.00,22.9,21.9,00.0,31.7,24.9,08.0,0000.0,0009.97,0004.00,0003.47
2022-12-10 16:39:00,,0827.4,5.01,0.00,23.0,21.9,00.0,31.7,24.9,08.1,0000.0,0009.05,0003.99,0003.46
2022-12-10 16:40:00,,0827.3,5.02,0.00,23.0,21.9,00.0,31.7,24.9,08.0,0000.0,0008.71,0003.93,0003.44
2022-12-10 16:41:00,,0827.2,4.99,0.00,23.0,21.9,00.0,31.7,24.9,08.0,0000.0,0008.53,0003.87,0003.42
2022-12-10 16:42:00,,0827.2,4.99,0.00,23.0,21.9,00.0,31.7,24.9,08.1,0000.0,0008.49,0003.83,0003.40
2022-12-10 16:43:00,,0827.2,4.99,0.00,23.0,21.9,00.0,31.7,24.9,08.2,0000.0,0008.51,0003.83,0003.39
2022-12-10 16:44:00,,0827.2,5.00,0.00,23.0,21.9,00.0,31.7,24.9,08.3,0000.0,0008.60,0003.84,0003.39
2022-12-10 16:45:00,,0827.3,5.02,0.00,23.1,22.0,00.0,31.8,25.0,08.4,0000.0,0008.57,0003.84,0003.38
2022-12-10 16:46:00,,0827.2,5.00,0.00,23.1,22.0,00.0,31.8,25.0,08.3,0000.0,0008.58,0003.80,0003.36
2022-12-10 16:47:00,,0827.2,4.99,0.00,23.1,22.0,00.0,31.8,25.0,08.2,0000.0,0008.08,0003.78,0003.34
2022-12-10 16:48:00,,0827.2,4.99,0.00,23.1,22.0,00.0,31.8,25.0,08.2,0000.0,0007.57,0003.78,0003.33
2022-12-10 16:49:00,,0827.1,4.99,0.00,23.1,22.0,00.0,31.8,25.0,08.2,0000.0,0008.13,0003.79,0003.32
2022-12-10 16:50:00,,0827.2,5.01,0.00,23.1,22.1,00.0,31.8,25.0,08.1,0000.0,0008.11,0003.78,0003.30
2022-12-10 16:51:00,,0827.1,5.02,0.00,23.2,22.1,00.0,31.8,25.0,08.0,0000.0,0008.17,0003.79,0003.29
2022-12-10 16:52:00,,0827.1,4.99,0.00,23.2,22.1,00.0,31.9,25.0,08.0,0000.0,0008.31,0003.83,0003.29
2022-12-10 16:53:00,,0827.2,4.98,0.00,23.2,22.1,00.0,31.9,25.0,08.0,0000.0,0008.26,0003.81,0003.27
2022-12-10 16:54:00,,0827.2,5.00,0.00,23.2,22.1,00.0,31.9,25.1,08.1,0000.0,0008.35,0003.80,0003.25
2022-12-10 16:55:00,,0827.2,5.02,0.00,23.2,22.1,00.0,31.9,25.1,08.1,0000.0,0008.09,0003.76,0003.24
2022-12-10 16:56:00,,0827.1,5.01,0.00,23.2,22.2,00.0,31.9,25.1,08.0,0000.0,0008.34,0003.72,0003.22
2022-12-10 16:57:00,,0827.1,4.99,0.00,23.2,22.2,00.0,31.9,25.1,08.7,0000.0,0008.99,0003.70,0003.21
2022-12-10 16:58:00,,0827.0,4.99,0.00,23.3,22.2,00.0,32.0,25.1,08.7,0000.0,0009.18,0003.74,0003.23
2022-12-10 16:59:00,,0827.2,5.00,0.00,23.3,22.2,00.0,32.0,25.1,08.8,0000.0,0009.13,0003.74,0003.24
